Szeged, Hungary

4:16 PM CEST on July 24, 2017 (GMT +0200)
Szeged

Weather History for LHUD - December, 2012

Change the Weather History Date:

Sunday, December 9, 2012

  Actual Average (LRAR) Record (LRAR)
Temperature  
Mean Temperature 20 °F -  
Max Temperature 29 °F 38 °F 60 °F (2006)
Min Temperature 8 °F 26 °F 12 °F (2012)
Degree Days  
Heating Degree Days 46    
Moisture  
Dew Point 17 °F    
Average Humidity 78    
Maximum Humidity 100    
Minimum Humidity 55    
Precipitation  
Precipitation 0.00 in 0.05 in - ()
Sea Level Pressure  
Sea Level Pressure 29.94 in    
Wind  
Wind Speed 15 mph ()    
Max Wind Speed 23 mph    
Max Gust Speed 36 mph    
Visibility 4.7 miles    
Events Snow    
Averages and records for this station are not official NWS values.
T = Trace of Precipitation, MM = Missing Value Source: Averaged Metar Reports

Daily Weather History Graph

Daily Weather History Graph

Search for Another Location

Airport or City:

Trip Planner

Search our weather history database for the weather conditions in past years. The results will help you decide how hot, cold, wet, or windy it might be!

Date:

Astronomy

Dec. 09, 2012 Rise Set
Actual Time 7:10 AM CET 3:53 PM CET
Civil Twilight 6:36 AM CET 4:27 PM CET
Nautical Twilight 5:58 AM CET 5:05 PM CET
Astronomical Twilight 5:21 AM CET 5:42 PM CET
Moon 2:10 AM CET (12/9) 12:58 PM CET (12/9)
Length of Visible Light 9h 51m
Length of Day
8h 42m
Waning Crescent, 21% of the Moon is Illuminated
Dec 9
Waning Crescent
Dec 13
New
Dec 20
First Quarter
Dec 28
Full
Jan 5
Last Quarter

Hourly Weather History & Observations

Time (CET) Temp. Windchill Dew Point Humidity Pressure Visibility Wind Dir Wind Speed Gust Speed Precip Events Conditions
12:45 AM 24.8 °F 9.6 °F 24.8 °F 100% 29.89 in 0.9 mi North 23.0 mph 35.7 mph N/A Snow Light Snow
1:00 AM 25 °F - 24 °F 94% 29.89 in 1 mi North 22.4 mph - - Snow Light Snow
1:45 AM 24.8 °F 9.6 °F 24.8 °F 100% 29.89 in 1.2 mi North 23.0 mph - N/A Snow Light Snow
2:45 AM 24.8 °F 10.0 °F 24.8 °F 100% 29.89 in 1.2 mi North 21.9 mph - N/A Snow Light Snow
3:45 AM 24.8 °F 9.6 °F 24.8 °F 100% 29.89 in 1.2 mi North 23.0 mph - N/A Snow Light Snow
4:45 AM 24.8 °F 9.6 °F 24.8 °F 100% 29.89 in 1.2 mi North 23.0 mph - N/A Snow Light Snow
5:15 AM 26.6 °F 12.4 °F 23.0 °F 86% 29.89 in 1.2 mi North 21.9 mph - N/A Snow Light Snow
5:45 AM 26.6 °F 13.4 °F 23.0 °F 86% 29.89 in 1.9 mi North 18.4 mph - N/A Snow Light Snow
6:15 AM 26.6 °F 14.7 °F 23.0 °F 86% 29.92 in 3.1 mi NNW 15.0 mph - N/A Snow Light Snow
6:45 AM 26.6 °F 13.8 °F 21.2 °F 80% 29.92 in 6.2 mi NNW 17.3 mph - N/A Snow Light Snow
7:00 AM 27 °F - 20 °F 67% 29.92 in 10 mi NNW 15.7 mph - - Snow Light Snow
7:15 AM 26.6 °F 13.4 °F 19.4 °F 74% 29.92 in 6.2 mi NNW 18.4 mph - N/A Snow Low Drifting Snow
7:45 AM 26.6 °F 13.1 °F 19.4 °F 74% 29.92 in 6.2 mi NNW 19.6 mph - N/A Snow Low Drifting Snow
8:15 AM 26.6 °F 13.1 °F 19.4 °F 74% 29.92 in 6.2 mi NNW 19.6 mph - N/A Snow Low Drifting Snow
8:45 AM 28.4 °F 15.1 °F 17.6 °F 64% 29.92 in 6.2 mi NNW 20.7 mph - N/A Snow Low Drifting Snow
9:15 AM 28.4 °F 15.8 °F 17.6 °F 64% 29.92 in 6.2 mi NNW 18.4 mph - N/A Snow Low Drifting Snow
9:45 AM 28.4 °F 15.8 °F 17.6 °F 64% 29.95 in 6.2 mi NNW 18.4 mph - N/A Snow Low Drifting Snow
10:15 AM 28.4 °F 15.4 °F 17.6 °F 64% 29.95 in 6.2 mi NNW 19.6 mph - N/A Snow Low Drifting Snow
10:45 AM 28.4 °F 17.5 °F 17.6 °F 64% 29.92 in 6.2 mi NW 13.8 mph - N/A Snow Low Drifting Snow
11:15 AM 28.4 °F 18.0 °F 17.6 °F 64% 29.92 in 6.2 mi NW 12.7 mph - N/A Snow Low Drifting Snow
11:45 AM 28.4 °F 17.5 °F 19.4 °F 69% 29.92 in 6.2 mi NW 13.8 mph - N/A Snow Low Drifting Snow
12:45 PM 28.4 °F 17.5 °F 17.6 °F 64% 29.92 in 6.2 mi WNW 13.8 mph - N/A Snow Low Drifting Snow
1:00 PM 28 °F - 18 °F 55% 29.94 in 28 mi WNW 13.4 mph - - Snow Low Drifting Snow
1:15 PM 28.4 °F 16.6 °F 17.6 °F 64% 29.92 in 6.2 mi WNW 16.1 mph - N/A Snow Low Drifting Snow
1:45 PM 28.4 °F 17.0 °F 17.6 °F 64% 29.92 in 6.2 mi WNW 15.0 mph - N/A Snow Low Drifting Snow
2:15 PM 28.4 °F 17.0 °F 17.6 °F 64% 29.92 in 6.2 mi WNW 15.0 mph - N/A Snow Low Drifting Snow
2:45 PM 28.4 °F 18.5 °F 17.6 °F 64% 29.95 in 6.2 mi WNW 11.5 mph - N/A Snow Low Drifting Snow
3:15 PM 28.4 °F 18.0 °F 17.6 °F 64% 29.95 in 6.2 mi WNW 12.7 mph - N/A Snow Low Drifting Snow
3:45 PM 26.6 °F 16.8 °F 17.6 °F 69% 29.95 in - WNW 10.4 mph - N/A   Clear
4:15 PM 24.8 °F 17.9 °F 15.8 °F 69% 29.95 in - WNW 5.8 mph - N/A   Clear
4:45 PM 23.0 °F 13.9 °F 15.8 °F 74% 29.95 in - NW 8.1 mph - N/A   Clear
5:15 PM 19.4 °F 9.5 °F 14.0 °F 80% 29.95 in - West 8.1 mph - N/A   Clear
5:45 PM 21.2 °F 13.6 °F 14.0 °F 74% 29.95 in - West 5.8 mph - N/A   Clear
6:15 PM 17.6 °F 12.3 °F 14.0 °F 86% 29.98 in - SW 3.5 mph - N/A   Clear
6:45 PM 17.6 °F 9.3 °F 14.0 °F 86% 29.98 in - South 5.8 mph - N/A   Clear
7:00 PM 18 °F - 14 °F 79% 30.01 in 12 mi South 6.7 mph - -   Partly Cloudy
7:15 PM 15.8 °F 7.2 °F 12.2 °F 86% 29.98 in - SSW 5.8 mph - N/A   Clear
7:45 PM 12.2 °F 6.1 °F 10.4 °F 92% 29.98 in - WSW 3.5 mph - N/A   Clear
8:15 PM 10.4 °F 0.8 °F 8.6 °F 92% 29.98 in - WSW 5.8 mph - N/A   Clear
8:45 PM 12.2 °F 4.3 °F 10.4 °F 92% 29.98 in - WSW 4.6 mph - N/A   Clear
8:55 PM 10.4 °F 4.0 °F 8.6 °F 92% 30.01 in 0.7 mi West 3.5 mph - N/A   Mist
9:45 PM 14.0 °F 6.5 °F 10.4 °F 86% 29.98 in 3.1 mi South 4.6 mph - N/A   Mist
10:45 PM 12.2 °F 6.1 °F 8.6 °F 85% 29.98 in 2.8 mi South 3.5 mph - N/A   Mist
11:45 PM 8.6 °F 2.0 °F 5.0 °F 85% 29.95 in 2.8 mi SW 3.5 mph - N/A   Mist